Bend, OR

2:08 PM PDT on July 27, 2017 (GMT -0700)
Bend Municipal

Weather History for KBDN - October, 2012

Change the Weather History Date:

Monday, October 29, 2012

  Actual Average (KRDM) Record (KRDM)
Temperature  
Mean Temperature 55 °F -  
Max Temperature 62 °F 53 °F 78 °F (1987)
Min Temperature 48 °F 26 °F 4 °F (1971)
Degree Days  
Heating Degree Days 10    
Growing Degree Days 5 (Base 50)    
Moisture  
Dew Point 37 °F    
Average Humidity 50    
Maximum Humidity 62    
Minimum Humidity 27    
Precipitation  
Precipitation 0.00 in - - ()
Sea Level Pressure  
Sea Level Pressure 30.05 in    
Wind  
Wind Speed 14 mph (SW)    
Max Wind Speed 23 mph    
Max Gust Speed 29 mph    
Visibility 10 miles    
Events Rain    
Averages and records for this station are not official NWS values.
T = Trace of Precipitation, MM = Missing Value Source: NWS Daily Summary

Daily Weather History Graph

Daily Weather History Graph

Search for Another Location

Airport or City:

Trip Planner

Search our weather history database for the weather conditions in past years. The results will help you decide how hot, cold, wet, or windy it might be!

Date:

Astronomy

Oct. 29, 2012 Rise Set
Actual Time 7:38 AM PDT 5:58 PM PDT
Civil Twilight 7:08 AM PDT 6:27 PM PDT
Nautical Twilight 6:34 AM PDT 7:01 PM PDT
Astronomical Twilight 6:00 AM PDT 7:35 PM PDT
Moon 5:51 PM PDT (10/29) 7:34 AM PDT (10/29)
Length of Visible Light 11h 19m
Length of Day
10h 19m
Full, 100% of the Moon is Illuminated
Oct 29
Full
Oct 29
Full
Nov 6
Last Quarter
Nov 13
New
Nov 20
First Quarter

Hourly Weather History & Observations

Time (PDT) Temp. Dew Point Humidity Pressure Visibility Wind Dir Wind Speed Gust Speed Precip Events Conditions
12:35 AM 55.4 °F 39.2 °F 54% 29.98 in 10.0 mi SSW 11.5 mph - N/A   Clear
12:55 AM 55.4 °F 39.2 °F 54% 29.99 in 10.0 mi SSW 11.5 mph - N/A   Clear
1:15 AM 55.4 °F 39.2 °F 54% 29.99 in 10.0 mi South 9.2 mph - N/A   Partly Cloudy
1:35 AM 53.6 °F 39.2 °F 58% 29.98 in 10.0 mi South 10.4 mph - N/A   Partly Cloudy
1:55 AM 53.6 °F 39.2 °F 58% 29.98 in 10.0 mi SSW 10.4 mph - N/A   Partly Cloudy
2:15 AM 51.8 °F 39.2 °F 62% 29.98 in 10.0 mi SSW 8.1 mph - N/A   Clear
2:35 AM 53.6 °F 39.2 °F 58% 29.99 in 10.0 mi SSW 13.8 mph - N/A   Scattered Clouds
3:15 AM 55.4 °F 39.2 °F 54% 29.98 in 10.0 mi SSW 16.1 mph 23.0 mph N/A   Partly Cloudy
3:55 AM 55.4 °F 39.2 °F 54% 29.98 in 10.0 mi SW 16.1 mph 27.6 mph N/A   Clear
4:15 AM 55.4 °F 37.4 °F 51% 29.98 in 10.0 mi SW 17.3 mph 25.3 mph N/A   Clear
4:35 AM 55.4 °F 37.4 °F 51% 29.98 in 10.0 mi SSW 16.1 mph - N/A   Scattered Clouds
4:55 AM 55.4 °F 37.4 °F 51% 29.99 in 10.0 mi SW 16.1 mph 21.9 mph N/A   Mostly Cloudy
5:15 AM 55.4 °F 37.4 °F 51% 29.98 in 10.0 mi SSW 20.7 mph 27.6 mph N/A   Scattered Clouds
5:35 AM 55.4 °F 37.4 °F 51% 29.98 in 10.0 mi SSW 19.6 mph 24.2 mph N/A   Scattered Clouds
5:55 AM 55.4 °F 37.4 °F 51% 29.99 in 10.0 mi SSW 20.7 mph 26.5 mph N/A   Mostly Cloudy
6:15 AM 55.4 °F 39.2 °F 54% 29.99 in 10.0 mi SSW 18.4 mph - N/A   Mostly Cloudy
6:35 AM 53.6 °F 39.2 °F 58% 29.99 in 10.0 mi SSW 23.0 mph 27.6 mph N/A   Partly Cloudy
7:15 AM 55.4 °F 39.2 °F 54% 30.01 in 10.0 mi SSW 19.6 mph 26.5 mph N/A   Mostly Cloudy
7:35 AM 55.4 °F 39.2 °F 54% 30.01 in 10.0 mi SSW 20.7 mph 25.3 mph N/A   Mostly Cloudy
7:55 AM 55.4 °F 39.2 °F 54% 30.02 in 10.0 mi SSW 20.7 mph - N/A   Overcast
8:15 AM 55.4 °F 39.2 °F 54% 30.03 in 10.0 mi SSW 21.9 mph 27.6 mph N/A   Mostly Cloudy
8:35 AM 55.4 °F 39.2 °F 54% 30.04 in 10.0 mi SSW 17.3 mph 24.2 mph N/A   Mostly Cloudy
8:55 AM 57.2 °F 39.2 °F 51% 30.05 in 10.0 mi SW 19.6 mph 24.2 mph N/A   Mostly Cloudy
9:15 AM 55.4 °F 39.2 °F 54% 30.05 in 10.0 mi SSW 18.4 mph 25.3 mph N/A   Mostly Cloudy
9:35 AM 57.2 °F 39.2 °F 51% 30.06 in 10.0 mi SW 17.3 mph - N/A   Mostly Cloudy
9:55 AM 57.2 °F 39.2 °F 51% 30.06 in 10.0 mi SW 20.7 mph 26.5 mph N/A   Scattered Clouds
10:15 AM 55.4 °F 41.0 °F 58% 30.08 in 10.0 mi SSW 15.0 mph 20.7 mph N/A   Mostly Cloudy
10:55 AM 57.2 °F 41.0 °F 55% 30.08 in 10.0 mi SSW 16.1 mph - N/A   Scattered Clouds
11:15 AM 59.0 °F 39.2 °F 48% 30.08 in 10.0 mi SW 23.0 mph 28.8 mph N/A   Clear
11:55 AM 59.0 °F 39.2 °F 48% 30.09 in 10.0 mi SW 16.1 mph 21.9 mph N/A   Partly Cloudy
12:15 PM 59.0 °F 39.2 °F 48% 30.09 in 10.0 mi SW 11.5 mph - N/A   Partly Cloudy
12:35 PM 60.8 °F 37.4 °F 42% 30.09 in 10.0 mi WSW 15.0 mph 23.0 mph N/A   Scattered Clouds
12:55 PM 59.0 °F 37.4 °F 45% 30.09 in 10.0 mi WSW 9.2 mph - N/A   Scattered Clouds
1:15 PM 62.6 °F 37.4 °F 39% 30.09 in 10.0 mi WSW 10.4 mph - N/A   Scattered Clouds
1:35 PM 60.8 °F 37.4 °F 42% 30.09 in 10.0 mi WSW 10.4 mph 17.3 mph N/A   Scattered Clouds
1:55 PM 57.2 °F 39.2 °F 51% 30.10 in 10.0 mi SW 12.7 mph 18.4 mph N/A Rain Light Rain
2:15 PM 59.0 °F 39.2 °F 48% 30.10 in 10.0 mi SW 11.5 mph 16.1 mph N/A   Mostly Cloudy
2:35 PM 59.0 °F 41.0 °F 51% 30.09 in 8.0 mi WSW 9.2 mph 18.4 mph N/A Rain Light Rain
3:15 PM 62.6 °F 35.6 °F 37% 30.09 in 10.0 mi SW 13.8 mph 19.6 mph N/A   Clear
3:35 PM 62.6 °F 32.0 °F 32% 30.10 in 10.0 mi SW 8.1 mph 20.7 mph N/A   Clear
3:55 PM 62.6 °F 32.0 °F 32% 30.11 in 10.0 mi SW 12.7 mph - N/A   Clear
4:15 PM 62.6 °F 28.4 °F 27% 30.12 in 10.0 mi WSW 13.8 mph 17.3 mph N/A   Scattered Clouds
4:35 PM 60.8 °F 30.2 °F 31% 30.12 in 10.0 mi West 8.1 mph - N/A   Mostly Cloudy
4:55 PM 60.8 °F 32.0 °F 34% 30.11 in 10.0 mi SSW 12.7 mph - N/A   Scattered Clouds
5:15 PM 59.0 °F 32.0 °F 36% 30.11 in 10.0 mi WSW 8.1 mph - N/A   Partly Cloudy
5:35 PM 57.2 °F 32.0 °F 38% 30.11 in 10.0 mi SW 9.2 mph - N/A   Clear
5:55 PM 57.2 °F 32.0 °F 38% 30.11 in 10.0 mi SW 11.5 mph - N/A   Clear
8:55 PM 51.8 °F 35.6 °F 54% 30.10 in 10.0 mi SSW 13.8 mph - N/A   Clear
9:35 PM 51.8 °F 35.6 °F 54% 30.10 in 10.0 mi SW 6.9 mph - N/A   Clear
9:55 PM 50.0 °F 35.6 °F 58% 30.09 in 10.0 mi South 3.5 mph - N/A   Clear
10:15 PM 48.2 °F 35.6 °F 62% 30.09 in 10.0 mi SSW 5.8 mph - N/A   Clear
10:35 PM 48.2 °F 35.6 °F 62% 30.09 in 10.0 mi Calm Calm - N/A   Clear
10:55 PM 48.2 °F 35.6 °F 62% 30.09 in 10.0 mi ESE 5.8 mph - N/A   Clear
11:15 PM 48.2 °F 35.6 °F 62% 30.08 in 10.0 mi SE 4.6 mph - N/A   Scattered Clouds
11:35 PM 48.2 °F 35.6 °F 62% 30.07 in 10.0 mi South 5.8 mph - N/A   Mostly Cloudy